• In Netherlands
  • List of Countries
  • For 7 days
  • Water Temperature
  • Satellite Maps
  • Weather Map
  • Weather Widgets
  • user-avatar
    Login

    Hourly Weather Kandi

    Today, 29 July, Saturday

    Time Temperature Precipitation Wind Pressure Humidity
    00:00 +28°C° 0 mm 2 mps 738 mmHg 73%
    01:00 +28°C° 0.1 mm 2 mps 738 mmHg 76%
    02:00 +27°C° 0.1 mm 2 mps 738 mmHg 79%
    03:00 +27°C° 0.1 mm 2 mps 737 mmHg 83%
    04:00 +26°C° 0.1 mm 2 mps 738 mmHg 84%
    05:00 +26°C° 0.1 mm 2 mps 738 mmHg 85%
    06:00 +26°C° 0 mm 2 mps 738 mmHg 83%
    07:00 +28°C° 0.2 mm 2 mps 739 mmHg 77%
    08:00 +29°C° 0.2 mm 3 mps 739 mmHg 71%
    09:00 +31°C° 0.2 mm 3 mps 739 mmHg 66%
    10:00 +34°C° 0 mm 3 mps 739 mmHg 57%
    11:00 +36°C° 0 mm 2 mps 738 mmHg 48%
    12:00 +39°C° 0 mm 2 mps 738 mmHg 40%
    13:00 +39°C° 0 mm 2 mps 738 mmHg 39%
    14:00 +39°C° 0 mm 2 mps 737 mmHg 37%
    15:00 +39°C° 0 mm 2 mps 736 mmHg 36%
    16:00 +38°C° 0 mm 2 mps 736 mmHg 41%
    17:00 +37°C° 0 mm 2 mps 736 mmHg 45%
    18:00 +35°C° 0 mm 2 mps 736 mmHg 49%
    19:00 +34°C° 0 mm 2 mps 737 mmHg 54%
    20:00 +32°C° 0 mm 2 mps 737 mmHg 59%
    21:00 +31°C° 0 mm 3 mps 738 mmHg 64%
    22:00 +30°C° 0.3 mm 2 mps 738 mmHg 68%
    23:00 +29°C° 0.3 mm 2 mps 738 mmHg 72%

    Tomorrow, 30 July, Sunday

    Time Temperature Precipitation Wind Pressure Humidity
    00:00 +29°C° 0.3 mm 2 mps 738 mmHg 76%
    01:00 +28°C° 0 mm 3 mps 737 mmHg 78%
    02:00 +28°C° 0 mm 3 mps 737 mmHg 80%
    03:00 +28°C° 0 mm 3 mps 737 mmHg 82%
    04:00 +27°C° 0.1 mm 3 mps 737 mmHg 84%
    05:00 +27°C° 0.1 mm 3 mps 738 mmHg 85%
    06:00 +27°C° 0.1 mm 3 mps 738 mmHg 86%
    07:00 +27°C° 0.1 mm 3 mps 738 mmHg 82%
    08:00 +28°C° 0.1 mm 3 mps 739 mmHg 78%
    09:00 +29°C° 0.1 mm 3 mps 739 mmHg 75%
    10:00 +30°C° 0 mm 4 mps 739 mmHg 68%
    11:00 +33°C° 0 mm 4 mps 739 mmHg 62%
    12:00 +34°C° 0 mm 4 mps 739 mmHg 55%
    13:00 +35°C° 0 mm 3 mps 738 mmHg 52%
    14:00 +36°C° 0 mm 3 mps 737 mmHg 50%
    15:00 +36°C° 0 mm 3 mps 737 mmHg 47%
    16:00 +35°C° 0 mm 2 mps 736 mmHg 50%
    17:00 +34°C° 0 mm 2 mps 736 mmHg 54%
    18:00 +32°C° 0 mm 2 mps 736 mmHg 57%
    19:00 +31°C° 0.3 mm 2 mps 737 mmHg 62%
    20:00 +30°C° 0.3 mm 2 mps 737 mmHg 68%
    21:00 +29°C° 0.3 mm 2 mps 738 mmHg 73%
    22:00 +28°C° 0.1 mm 2 mps 738 mmHg 75%
    23:00 +28°C° 0.1 mm 2 mps 738 mmHg 77%

    Day after tomorrow, 31 July, Monday

    Time Temperature Precipitation Wind Pressure Humidity
    00:00 +28°C° 0.1 mm 2 mps 738 mmHg 79%
    01:00 +27°C° 0.7 mm 2 mps 738 mmHg 82%
    02:00 +27°C° 0.7 mm 2 mps 738 mmHg 85%
    03:00 +26°C° 0.7 mm 2 mps 737 mmHg 88%
    04:00 +26°C° 0.6 mm 2 mps 738 mmHg 89%
    05:00 +25°C° 0.6 mm 2 mps 738 mmHg 91%
    06:00 +25°C° 0.6 mm 3 mps 738 mmHg 92%
    07:00 +25°C° 0.7 mm 2 mps 739 mmHg 91%
    08:00 +25°C° 0.7 mm 2 mps 739 mmHg 91%
    09:00 +26°C° 0.7 mm 1 mps 740 mmHg 90%
    10:00 +26°C° 0.8 mm 2 mps 740 mmHg 88%
    11:00 +27°C° 0.8 mm 3 mps 739 mmHg 85%
    12:00 +27°C° 0.8 mm 3 mps 739 mmHg 83%
    13:00 +29°C° 0 mm 3 mps 738 mmHg 77%
    14:00 +30°C° 0 mm 3 mps 738 mmHg 70%
    15:00 +31°C° 0 mm 3 mps 737 mmHg 63%
    16:00 +30°C° 0 mm 2 mps 737 mmHg 66%
    17:00 +29°C° 0 mm 2 mps 737 mmHg 69%
    18:00 +29°C° 0 mm 1 mps 736 mmHg 72%
    19:00 +28°C° 0 mm 1 mps 737 mmHg 76%
    20:00 +27°C° 0 mm 1 mps 738 mmHg 80%
    21:00 +26°C° 0 mm 1 mps 738 mmHg 84%
    22:00 +26°C° 0 mm 1 mps 738 mmHg 85%
    23:00 +26°C° 0 mm 1 mps 739 mmHg 86%

    1 August, Tuesday

    Time Temperature Precipitation Wind Pressure Humidity
    00:00 +25°C° 0 mm 2 mps 739 mmHg 88%
    01:00 +25°C° 0 mm 2 mps 738 mmHg 89%
    02:00 +25°C° 0 mm 2 mps 738 mmHg 89%
    03:00 +25°C° 0 mm 2 mps 738 mmHg 90%
    04:00 +25°C° 0 mm 2 mps 738 mmHg 90%
    05:00 +25°C° 0 mm 2 mps 738 mmHg 90%
    06:00 +25°C° 0 mm 2 mps 739 mmHg 90%
    07:00 +27°C° 0 mm 3 mps 739 mmHg 81%
    08:00 +29°C° 0 mm 3 mps 739 mmHg 72%
    09:00 +30°C° 0 mm 3 mps 740 mmHg 63%
    10:00 +33°C° 0 mm 3 mps 739 mmHg 57%
    11:00 +35°C° 0 mm 3 mps 739 mmHg 50%
    12:00 +37°C° 0 mm 3 mps 738 mmHg 43%
    13:00 +38°C° 0 mm 3 mps 738 mmHg 42%
    14:00 +38°C° 0 mm 2 mps 737 mmHg 40%
    15:00 +38°C° 0 mm 2 mps 736 mmHg 38%
    16:00 +37°C° 0 mm 2 mps 737 mmHg 44%
    17:00 +35°C° 0 mm 2 mps 737 mmHg 49%
    18:00 +34°C° 0 mm 2 mps 737 mmHg 54%
    19:00 +31°C° 1 mm 2 mps 738 mmHg 63%
    20:00 +30°C° 1 mm 2 mps 738 mmHg 71%
    21:00 +28°C° 1 mm 2 mps 739 mmHg 80%
    22:00 +28°C° 0 mm 2 mps 739 mmHg 81%
    23:00 +27°C° 0 mm 2 mps 739 mmHg 83%

    2 August, Wednesday

    Time Temperature Precipitation Wind Pressure Humidity
    00:00 +27°C° 0 mm 2 mps 739 mmHg 84%
    01:00 +27°C° 0 mm 2 mps 738 mmHg 85%
    02:00 +27°C° 0 mm 2 mps 738 mmHg 85%
    03:00 +26°C° 0 mm 2 mps 738 mmHg 86%
    04:00 +26°C° 0.1 mm 2 mps 738 mmHg 87%
    05:00 +26°C° 0.1 mm 2 mps 738 mmHg 88%
    06:00 +26°C° 0.1 mm 2 mps 738 mmHg 89%
    07:00 +27°C° 0 mm 2 mps 739 mmHg 80%
    08:00 +29°C° 0 mm 3 mps 740 mmHg 72%
    09:00 +31°C° 0 mm 3 mps 740 mmHg 63%
    10:00 +34°C° 0 mm 2 mps 740 mmHg 57%
    11:00 +36°C° 0 mm 2 mps 740 mmHg 50%
    12:00 +37°C° 0 mm 2 mps 739 mmHg 44%
    13:00 +37°C° 0 mm 1 mps 738 mmHg 42%
    14:00 +37°C° 0 mm 1 mps 737 mmHg 41%
    15:00 +37°C° 0 mm 1 mps 737 mmHg 39%
    16:00 +36°C° 0 mm 1 mps 737 mmHg 43%
    17:00 +35°C° 0 mm 1 mps 737 mmHg 46%
    18:00 +34°C° 0 mm 1 mps 737 mmHg 50%
    19:00 +33°C° 0.1 mm 1 mps 737 mmHg 54%
    20:00 +31°C° 0.1 mm 2 mps 738 mmHg 58%
    21:00 +30°C° 0.1 mm 2 mps 738 mmHg 63%
    22:00 +30°C° 0 mm 2 mps 738 mmHg 67%
    23:00 +29°C° 0 mm 3 mps 738 mmHg 70%

    3 August, Thursday

    Time Temperature Precipitation Wind Pressure Humidity
    00:00 +28°C° 0 mm 3 mps 738 mmHg 74%
    01:00 +28°C° 0 mm 3 mps 738 mmHg 77%
    02:00 +27°C° 0 mm 3 mps 738 mmHg 80%
    03:00 +27°C° 0 mm 3 mps 738 mmHg 83%
    04:00 +26°C° 0.5 mm 3 mps 738 mmHg 85%
    05:00 +26°C° 0.5 mm 3 mps 738 mmHg 87%
    06:00 +25°C° 0.5 mm 3 mps 739 mmHg 89%
    07:00 +26°C° 0.4 mm 3 mps 739 mmHg 85%
    08:00 +27°C° 0.4 mm 4 mps 740 mmHg 81%
    09:00 +28°C° 0.4 mm 4 mps 740 mmHg 77%
    10:00 +30°C° 0 mm 4 mps 739 mmHg 70%
    11:00 +32°C° 0 mm 4 mps 739 mmHg 63%
    12:00 +34°C° 0 mm 4 mps 738 mmHg 57%
    13:00 +35°C° 0 mm 4 mps 738 mmHg 54%
    14:00 +35°C° 0 mm 4 mps 737 mmHg 52%
    15:00 +36°C° 0 mm 4 mps 736 mmHg 50%
    16:00 +35°C° 0 mm 3 mps 736 mmHg 54%
    17:00 +34°C° 0 mm 3 mps 736 mmHg 59%
    18:00 +32°C° 0 mm 2 mps 736 mmHg 63%
    19:00 +31°C° 0 mm 2 mps 737 mmHg 67%
    20:00 +30°C° 0 mm 2 mps 738 mmHg 70%
    21:00 +29°C° 0 mm 2 mps 738 mmHg 74%
    22:00 +29°C° 0 mm 2 mps 738 mmHg 75%
    23:00 +28°C° 0 mm 2 mps 738 mmHg 75%
    Show more